Jamestown, ND

11:01 PM CST on February 06, 2016 (GMT -0600)
Jamestown Municipal

Weather History for KJMS - May, 2013

Change the Weather History Date:

Friday, May 10, 2013

  Actual Average Record
Temperature  
Mean Temperature 53 °F 53 °F  
Max Temperature 74 °F 66 °F 96 °F (1987)
Min Temperature 31 °F 40 °F 20 °F (1946)
Degree Days  
Heating Degree Days 12 12  
Month to date heating degree days 182 138  
Since 1 July heating degree days 9488 8732  
Cooling Degree Days 0 0  
Month to date cooling degree days 0 0  
Year to date cooling degree days 0 2  
Growing Degree Days 2 (Base 50)    
Moisture  
Dew Point 31 °F    
Average Humidity 52    
Maximum Humidity 78    
Minimum Humidity 26    
Precipitation  
Precipitation 0.00 in 0.09 in 1.44 in (1999)
Month to date precipitation 0.00 0.76  
Year to date precipitation 1.19 3.65  
Sea Level Pressure  
Sea Level Pressure 30.08 in    
Wind  
Wind Speed 13 mph (NW)    
Max Wind Speed 36 mph    
Max Gust Speed 41 mph    
Visibility 10 miles    
Events      
T = Trace of Precipitation, MM = Missing Value Source: NWS Daily Summary

Daily Weather History Graph

Daily Weather History Graph

Search for Another Location

Airport or City:

Trip Planner

Search our weather history database for the weather conditions in past years. The results will help you decide how hot, cold, wet, or windy it might be!

Date:

Astronomy

May. 10, 2013 Rise Set
Actual Time 6:05 AM CDT 8:57 PM CDT
Civil Twilight 5:30 AM CDT 9:32 PM CDT
Nautical Twilight 4:45 AM CDT 10:17 PM CDT
Astronomical Twilight 3:52 AM CDT 11:11 PM CDT
Moon 6:30 AM CDT (5/10) 9:49 PM CDT (5/10)
Length of Visible Light 16h 02m
Length of Day
14h 51m
New Moon, 0% of the Moon is Illuminated
May 10
New Moon
May 17
First Quarter
May 24
Full
May 31
Last Quarter
Jun 8
New

Hourly Weather History & Observations

Time (CDT) Temp. Windchill Dew Point Humidity Pressure Visibility Wind Dir Wind Speed Gust Speed Precip Events Conditions
12:56 AM 37.9 °F 33.5 °F 24.1 °F 57% 30.20 in 10.0 mi North 5.8 mph - N/A   Clear
1:56 AM 37.0 °F 33.3 °F 24.1 °F 59% 30.19 in 10.0 mi North 4.6 mph - N/A   Clear
2:56 AM 34.0 °F 29.8 °F 24.1 °F 67% 30.17 in 10.0 mi NNW 4.6 mph - N/A   Clear
3:56 AM 32.0 °F 28.7 °F 26.1 °F 79% 30.16 in 10.0 mi NW 3.5 mph - N/A   Clear
4:56 AM 32.0 °F - 26.1 °F 79% 30.14 in 10.0 mi Calm Calm - N/A   Clear
5:56 AM 32.0 °F 28.7 °F 25.0 °F 75% 30.13 in 10.0 mi SSW 3.5 mph - N/A   Clear
6:56 AM 33.1 °F 28.7 °F 27.0 °F 78% 30.12 in 10.0 mi South 4.6 mph - N/A   Clear
7:56 AM 42.1 °F 37.7 °F 30.0 °F 62% 30.11 in 10.0 mi South 6.9 mph - N/A   Clear
8:56 AM 50.0 °F - 37.0 °F 61% 30.09 in 10.0 mi South 12.7 mph - N/A   Clear
9:56 AM 59.0 °F - 43.0 °F 55% 30.07 in 10.0 mi SSW 12.7 mph - N/A   Clear
10:56 AM 63.0 °F - 30.9 °F 30% 30.06 in 10.0 mi WSW 12.7 mph - N/A   Clear
11:56 AM 66.0 °F - 35.1 °F 32% 30.01 in 10.0 mi SW 18.4 mph 26.5 mph N/A   Clear
12:56 PM 70.0 °F - 34.0 °F 27% 29.98 in 10.0 mi West 16.1 mph 27.6 mph N/A   Clear
1:56 PM 70.0 °F - 34.0 °F 27% 29.96 in 10.0 mi West 18.4 mph 28.8 mph N/A   Clear
2:56 PM 73.0 °F - 37.0 °F 27% 29.93 in 10.0 mi NW 23.0 mph 29.9 mph N/A   Mostly Cloudy
3:56 PM 70.0 °F - 36.0 °F 29% 29.95 in 10.0 mi NNW 31.1 mph 39.1 mph N/A   Partly Cloudy
4:56 PM 66.9 °F - 35.1 °F 31% 29.98 in 10.0 mi North 29.9 mph 41.4 mph N/A   Clear
5:56 PM 62.1 °F - 35.1 °F 37% 30.02 in 10.0 mi North 28.8 mph 36.8 mph N/A   Partly Cloudy
6:56 PM 60.1 °F - 35.1 °F 39% 30.06 in 10.0 mi North 23.0 mph 33.4 mph N/A   Clear
7:56 PM 57.0 °F - 33.1 °F 40% 30.07 in 10.0 mi North 15.0 mph 25.3 mph N/A   Partly Cloudy
8:56 PM 53.1 °F - 34.0 °F 48% 30.10 in 10.0 mi North 13.8 mph - N/A   Scattered Clouds
9:56 PM 46.0 °F 41.4 °F 30.9 °F 56% 30.14 in 10.0 mi North 9.2 mph - N/A   Clear
10:56 PM 42.1 °F 37.1 °F 28.9 °F 60% 30.18 in 10.0 mi NNW 8.1 mph - N/A   Clear
11:56 PM 37.9 °F 33.5 °F 28.0 °F 68% 30.19 in 10.0 mi NNW 5.8 mph - N/A   Clear